Regional Weather Roundup
Issued by NWS

Home | Current Version | Previous Version | Text Only | Print | Product List | Glossary On
Versions: 1 2 3 4 5 6 7 8 9 10 11 12 13 14 15 16 17 18 19 20 21 22 23 24 25 26 27 28 29 30 31 32 33 34 35 36 37 38 39 40 41 42 43 44 45 46 47 48 49 50
000
ASUS43 KDMX 261508
RWRIA

WEATHER ROUNDUP FOR IOWA
NATIONAL WEATHER SERVICE DES MOINES IA
1000 AM CDT FRI AUG 26 2016

NOTE: "FAIR" INDICATES FEW OR NO CLOUDS BELOW 12,000 FEET WITH NO
SIGNIFICANT WEATHER AND/OR OBSTRUCTIONS TO VISIBILITY.

* - THESE STATIONS ARE NOT NWS STATIONS...THUS NOT UNDER NWS
QUALITY CONTROL.  THEY ALSO DO NOT REPORT WEATHER SUCH
AS PRECIPITATION OR FOG.

IAZ001>003-012>014-020>022-031>034-043>046-261600-
   NORTHWEST IOWA

CITY           SKY/WX    TMP DP  RH WIND       PRES   REMARKS
CARROLL *      CLOUDY    64  61  88 E3        30.18S
CHEROKEE *     CLOUDY    61  61 100 CALM      30.18F
DENISON *      CLOUDY    64  61  88 E7        30.15F FOG
LE MARS *      MOSUNNY   64  59  82 VRB5      30.18F
ORANGE CITY *  CLOUDY    64  57  77 SE3       30.18F
SHELDON *      CLOUDY    63  59  88 E9        30.18S
SIOUX CITY     CLOUDY    63  57  81 CALM      30.17S
SPENCER        PTSUNNY   62  56  80 E7        30.20S HAZE
STORM LAKE *   CLOUDY    63  59  88 SE9       30.19S
$$

IAZ055>058-069>071-079>083-090>094-261600-
   SOUTHWEST IOWA

CITY           SKY/WX    TMP DP  RH WIND       PRES   REMARKS
ATLANTIC *     CLOUDY    64  61  88 E6        30.15F
AUDUBON *      CLOUDY    64  61  88 E6        30.18F
CLARINDA *       N/A     64  63  94 MISG      30.18F
COUNCIL BLFS * CLOUDY    64  61  88 E13       30.14F
CRESTON *      CLOUDY    64  63  94 E9        30.17F
HARLAN  *      CLOUDY    64  61  88 VRB5      30.19F
LAMONI         MOSUNNY   67  63  87 NE10      30.15F
RED OAK *      CLOUDY    64  61  88 SE7       30.16S
SHENANDOAH *   CLOUDY    63 N/A N/A E8G15     30.16S
$$

IAZ047>049-059>061-072>074-084-261600-
   CENTRAL IOWA

CITY           SKY/WX    TMP DP  RH WIND       PRES   REMARKS
AMES           PTSUNNY   64  63  96 SE7       30.19F
ANKENY *         N/A    N/A N/A N/A MISG        N/A
BOONE *        CLOUDY    64  61  88 SE9       30.18S
CHARITON *       N/A     66  64  94 MISG      30.18R
DES MOINES     LGT RAIN  67  61  81 E8        30.16F
GRINNELL*      LGT RAIN  64  61  88 NE5       30.18F
KNOXVILLE *    DRIZZLE   64  63  94 E6G13     30.17R
MARSHALLTOWN   CLOUDY    64  62  93 E6        30.18F
NEWTON *       CLOUDY    64  63  94 E7        30.18F
PERRY *          N/A     64  63  96 E3        30.18F
$$

IAZ004>006-015-016-023>025-035-036-261600-
   NORTH CENTRAL IOWA

CITY           SKY/WX    TMP DP  RH WIND       PRES   REMARKS
ALGONA *       CLOUDY    64  57  77 E5        30.21S
ESTHERVILLE    CLOUDY    60  58  92 E6        30.20F
FORT DODGE *   CLOUDY    63  57  82 E5        30.20S
MASON CITY     PTSUNNY   62  58  86 E3        30.22F
FOREST CITY *    N/A    N/A N/A N/A MISG        N/A
WEBSTER CITY * CLOUDY    66  63  88 E7        30.17F
IOWA FALLS *     N/A     65  59  80 E8        30.21S
$$

IAZ007>011-017>019-026>030-037>042-050>054-066-261600-
   NORTHEAST IOWA

CITY           SKY/WX    TMP DP  RH WIND       PRES   REMARKS
CEDAR RAPIDS   MOSUNNY   66  63  90 NE10      30.17F
CHARLES CITY * CLOUDY    64  61  88 NE5       30.21F
CLINTON *      CLOUDY    68  63  84 E7        30.19F
DECORAH *      CLOUDY    63  57  82 CALM      30.21R
DUBUQUE        PTSUNNY   67  58  72 E5        30.21S
MONTICELLO *   MOSUNNY   66  63  88 NE3       30.19F
WATERLOO       CLOUDY    64  58  80 NE5       30.19S
$$

IAZ064-065-067-068-078-261600-
   EAST CENTRAL IOWA

CITY           SKY/WX    TMP DP  RH WIND       PRES   REMARKS
DAVENPORT      MOSUNNY   68  62  81 E6        30.20R
IOWA CITY      CLOUDY    70  60  70 VRB7      30.19F
MT. PLEASANT * CLOUDY    71  68  89 E9        30.16F
MUSCATINE *    CLOUDY    70  63  78 E7        30.18S
QUAD CITIES    CLOUDY    71  60  68 E7        30.18R
$$

IAZ062-063-075>077-085>089-095>099-261600-
   SOUTHEAST IOWA

CITY           SKY/WX    TMP DP  RH WIND       PRES   REMARKS
BURLINGTON     CLOUDY    73  67  81 NE9       30.17S
FAIRFIELD *    CLOUDY    70  64  83 NE10      30.17R
FORT MADISON * LGT RAIN  70  66  88 E8        30.16F
KEOKUK *       LGT RAIN  70  66  88 NE6       30.16S
OSKALOOSA *      N/A     67  64  87 E6        30.19S
CENTERVILLE *    N/A     72  64  78 CALM      30.18S
OTTUMWA        CLOUDY    68  62  81 E7        30.18S
WASHINGTON *   CLOUDY    70  64  83 E10       30.18F
$$

ABBREVIATIONS USED IN REMARKS
   TC - TEMPERATURES IN CELSIUS
  WCI - WIND CHILL INDEX
   HX - HEAT INDEX
  VSB - VISIBILITY
$$




USA.gov is the U.S. government's official web portal to all federal, state and local government web resources and services.